Miscellaneous Local Product
Issued by NWS North Platte, NE

Home | Current Version | Previous Version | Graphics & Text | Print | Product List | Glossary On
Versions: 1 2 3 4 5 6 7 8 9 10 11 12 13 14 15 16 17 18 19 20 21 22 23 24 25 26 27 28 29 30 31 32 33 34 35 36 37 38 39 40 41 42 43 44 45 46 47 48 49 50
486
AXUS43 KLBF 151710
MISLBF


WESTERN AND NORTH CENTRAL NEBRASKA HOURLY WEATHER ROUNDUP
NATIONAL WEATHER SERVICE NORTH PLATTE NE
1200 PM CDT TUE AUG 15 2017

NOTE: "FAIR" INDICATES FEW OR NO CLOUDS BELOW 12,000 FEET WITH NO
SIGNIFICANT WEATHER AND/OR OBSTRUCTIONS TO VISIBILITY.

NOTE: STATIONS NOT REPORTING VARIABLES SUCH AS SKY/WEATHER OR
PRESSURE ARE PROVIDED BY RAWS AND APRS NETWORKS AND ARE NOT UNDER
NATIONAL WEATHER SERVICE QUALITY CONTROL.

...OBSERVATIONS IN AND NEAR THE EASTERN PANHANDLE OF NEBRASKA...

CITY           SKY/WX    TMP DP  RH WIND       PRES   REMARKS
PINE RIDGE     LGT RAIN  70  66  87 SW10      29.91S
GORDON         PTSUNNY   76  59  57 SW8       29.91S
CHADRON        PTSUNNY   72  61  68 W7        29.91S
ALLIANCE       CLOUDY    71  62  73 SW8       29.92F
SIDNEY         CLOUDY    73  63  70 NE10      29.94R
CRESCENT LAKE    N/A     67  64  91 CALM        N/A
$$

...OBSERVATIONS IN NORTHERN NEBRASKA AND FAR SOUTHERN SOUTH DAKOTA...

CITY           SKY/WX    TMP DP  RH WIND       PRES   REMARKS
WINNER         FAIR      77  66  68 SE14      29.85F
VALENTINE      MOSUNNY   74  62  66 SE9       29.87S
THEDFORD       CLOUDY    73  65  76 S8        29.88F
AINSWORTH      PTSUNNY   70  64  82 S5        29.88F
O`NEILL        CLOUDY    69  65  88 E8        29.87F
ORD            CLOUDY    77  63  61 SE14      29.84R
BROKEN BOW     CLOUDY    73  66  78 SE10      29.85F
HALSEY           N/A     70  64  82 SE6G16      N/A
BUTTE            N/A     70  64  81 SE9         N/A
CHAMBERS         N/A     69  65  87 CALM        N/A
EWING            N/A     72  67  86 SE3         N/A
$$

...OBSERVATIONS IN SOUTHWEST NEBRASKA AND FAR NORTHEAST COLORADO...

CITY           SKY/WX    TMP DP  RH WIND       PRES   REMARKS
HOLYOKE        FAIR      79  66  65 E10       29.88F
IMPERIAL       MOSUNNY   71  65  81 E9        29.87F
OGALLALA       CLOUDY    69  67  92 E9        29.85F
NORTH PLATTE   CLOUDY    70  66  87 VRB5      29.87F THUNDER
MCCOOK         CLOUDY    77  68  73 SE6       29.85F
LEXINGTON      CLOUDY    74  68  80 SE9       29.85F
STAPLETON        N/A     73  66  78 CALM        N/A
GOTHENBURG       N/A     67  63  86 SE6         N/A
CALLAWAY         N/A     69  67  93 S9          N/A
$$

...OBSERVATIONS IN CENTRAL LINCOLN COUNTY AREA...

CITY           SKY/WX    TMP DP  RH WIND       PRES   REMARKS
N.P. AIRPORT   CLOUDY    70  66  87 VRB5      29.87F THUNDER
N.P. DOWNTOWN    N/A     69  65  88 CALM        N/A
N.P. SOUTHEAST   N/A     70  65  85 CALM        N/A
N.P. HILLCREST   N/A     68  65  90 S3          N/A
$$

...SOME OBSERVATIONS FROM AROUND THE REGION...

CITY           SKY/WX    TMP DP  RH WIND       PRES   REMARKS
DENVER         CLOUDY    76  52  43 NW6       29.96S
LIMON          CLOUDY    74  59  59 CALM      29.96F
ASPEN          CLOUDY    69  38  32 N7        30.12S
LARAMIE        CLOUDY    64  44  48 CALM      30.08R
CASPER         MOSUNNY   66  52  60 SW9       29.99R
CHEYENNE       CLOUDY    71  51  49 E9        30.02S
SCOTTSBLUFF    CLOUDY    73  60  63 E6        29.92F
GRAND ISLAND   CLOUDY    75  70  84 SE15      29.87F
OMAHA          CLOUDY    72  66  81 SE10      29.90S
SIOUX FALLS    CLOUDY    68  64  87 SE10      29.92R
PIERRE         CLOUDY    72  63  73 SE9       29.84S
RAPID CITY     CLOUDY    65  62  90 S9        29.91R
BISMARCK       MOSUNNY   71  61  70 S10       29.87S
KANSAS CITY    PTSUNNY   82  72  71 S8        29.92R
HILL CITY      SUNNY     89  66  46 SE14G21   29.84F HX  91
WICHITA        MOSUNNY   84  74  71 SE9       29.87F HX  91
DODGE CITY     SUNNY     85  65  51 S14       29.87S
OKLAHOMA CITY  PTSUNNY   83  74  74 SE7       29.86S
DALLAS         CLOUDY    87  72  60 S13       29.88S HX  93
AMARILLO       SUNNY     80  63  55 SW15      29.93R
$$




USA.gov is the U.S. government's official web portal to all federal, state and local government web resources and services.